Year,Month,Day,Hour,Minute,Value (Times are PST for temperature in C)
2017,07,23,00,00,16.10
2017,07,23,00,01,16.10
2017,07,23,00,02,16.10
2017,07,23,00,03,16.10
2017,07,23,00,04,16.20
2017,07,23,00,05,16.20
2017,07,23,00,06,16.20
2017,07,23,00,07,16.20
2017,07,23,00,08,16.20
2017,07,23,00,09,16.20
2017,07,23,00,10,16.20
2017,07,23,00,11,16.30
2017,07,23,00,12,16.30
2017,07,23,00,13,16.30
2017,07,23,00,14,16.30
2017,07,23,00,15,16.30
2017,07,23,00,16,16.30
2017,07,23,00,17,16.30
2017,07,23,00,18,16.30
2017,07,23,00,19,16.30
2017,07,23,00,20,16.30
2017,07,23,00,21,16.30
2017,07,23,00,22,16.20
2017,07,23,00,23,16.20
2017,07,23,00,24,16.20
2017,07,23,00,25,16.20
2017,07,23,00,26,16.20
2017,07,23,00,27,16.20
2017,07,23,00,28,16.20
2017,07,23,00,29,16.20
2017,07,23,00,30,16.10
2017,07,23,00,31,16.10
2017,07,23,00,32,16.10
2017,07,23,00,33,16.10
2017,07,23,00,34,16.10
2017,07,23,00,35,16.00
2017,07,23,00,36,16.00
2017,07,23,00,37,15.90
2017,07,23,00,38,15.90
2017,07,23,00,39,15.90
2017,07,23,00,40,15.90
2017,07,23,00,41,15.80
2017,07,23,00,42,15.80
2017,07,23,00,43,15.80
2017,07,23,00,44,15.80
2017,07,23,00,45,15.80
2017,07,23,00,46,15.80
2017,07,23,00,47,15.80
2017,07,23,00,48,15.70
2017,07,23,00,49,15.70
2017,07,23,00,50,15.70
2017,07,23,00,51,15.70
2017,07,23,00,52,15.70
2017,07,23,00,53,15.70
2017,07,23,00,54,15.70
2017,07,23,00,55,15.60
2017,07,23,00,56,15.60
2017,07,23,00,57,15.60
2017,07,23,00,58,15.60
2017,07,23,00,59,15.60
2017,07,23,01,00,15.60
2017,07,23,01,01,15.60
2017,07,23,01,02,15.60
2017,07,23,01,03,15.60
2017,07,23,01,04,15.50
2017,07,23,01,05,15.50
2017,07,23,01,06,15.50
2017,07,23,01,07,15.50
2017,07,23,01,08,15.50
2017,07,23,01,09,15.50
2017,07,23,01,10,15.40
2017,07,23,01,11,15.40
2017,07,23,01,12,15.40
2017,07,23,01,13,15.40
2017,07,23,01,14,15.40
2017,07,23,01,15,15.40
2017,07,23,01,16,15.40
2017,07,23,01,17,15.40
2017,07,23,01,18,15.30
2017,07,23,01,19,15.30
2017,07,23,01,20,15.30
2017,07,23,01,21,15.30
2017,07,23,01,22,15.30
2017,07,23,01,23,15.30
2017,07,23,01,24,15.30
2017,07,23,01,25,15.30
2017,07,23,01,26,15.30
2017,07,23,01,27,15.30
2017,07,23,01,28,15.30
2017,07,23,01,29,15.30
2017,07,23,01,30,15.30
2017,07,23,01,31,15.30
2017,07,23,01,32,15.30
2017,07,23,01,33,15.30
2017,07,23,01,34,15.30
2017,07,23,01,35,15.30
2017,07,23,01,36,15.20
2017,07,23,01,37,15.20
2017,07,23,01,38,15.20
2017,07,23,01,39,15.20
2017,07,23,01,40,15.20
2017,07,23,01,41,15.20
2017,07,23,01,42,15.20
2017,07,23,01,43,15.20
2017,07,23,01,44,15.20
2017,07,23,01,45,15.20
2017,07,23,01,46,15.20
2017,07,23,01,47,15.10
2017,07,23,01,48,15.10
2017,07,23,01,49,15.10
2017,07,23,01,50,15.10
2017,07,23,01,51,15.10
2017,07,23,01,52,15.10
2017,07,23,01,53,15.00
2017,07,23,01,54,15.00
2017,07,23,01,55,15.00
2017,07,23,01,56,15.00
2017,07,23,01,57,15.00
2017,07,23,01,58,15.00
2017,07,23,01,59,15.00
2017,07,23,02,00,14.90
2017,07,23,02,01,14.90
2017,07,23,02,02,14.90
2017,07,23,02,03,14.90
2017,07,23,02,04,14.90
2017,07,23,02,05,14.90
2017,07,23,02,06,14.90
2017,07,23,02,07,14.80
2017,07,23,02,08,14.80
2017,07,23,02,09,14.80
2017,07,23,02,10,14.80
2017,07,23,02,11,14.80
2017,07,23,02,12,14.80
2017,07,23,02,13,14.80
2017,07,23,02,14,14.80
2017,07,23,02,15,14.70
2017,07,23,02,16,14.70
2017,07,23,02,17,14.70
2017,07,23,02,18,14.70
2017,07,23,02,19,14.70
2017,07,23,02,20,14.60
2017,07,23,02,21,14.60
2017,07,23,02,22,14.60
2017,07,23,02,23,14.50
2017,07,23,02,24,14.50
2017,07,23,02,25,14.50
2017,07,23,02,26,14.40
2017,07,23,02,27,14.40
2017,07,23,02,28,14.40
2017,07,23,02,29,14.30
2017,07,23,02,30,14.30
2017,07,23,02,31,14.30
2017,07,23,02,32,14.30
2017,07,23,02,33,14.20
2017,07,23,02,34,14.20
2017,07,23,02,35,14.20
2017,07,23,02,36,14.20
2017,07,23,02,37,14.20
2017,07,23,02,38,14.20
2017,07,23,02,39,14.20
2017,07,23,02,40,14.10
2017,07,23,02,41,14.10
2017,07,23,02,42,14.10
2017,07,23,02,43,14.10
2017,07,23,02,44,14.10
2017,07,23,02,45,14.10
2017,07,23,02,46,14.10
2017,07,23,02,47,14.10
2017,07,23,02,48,14.10
2017,07,23,02,49,14.10
2017,07,23,02,50,14.10
2017,07,23,02,51,14.00
2017,07,23,02,52,14.00
2017,07,23,02,53,14.00
2017,07,23,02,54,14.00
2017,07,23,02,55,14.00
2017,07,23,02,56,14.00
2017,07,23,02,57,14.00
2017,07,23,02,58,14.00
2017,07,23,02,59,13.90
2017,07,23,03,00,13.90
2017,07,23,03,01,13.90
2017,07,23,03,02,13.90
2017,07,23,03,03,13.90
2017,07,23,03,04,13.90
2017,07,23,03,05,13.90
2017,07,23,03,06,13.90
2017,07,23,03,07,13.90
2017,07,23,03,08,13.90
2017,07,23,03,09,13.90
2017,07,23,03,10,13.90
2017,07,23,03,11,13.90
2017,07,23,03,12,13.90
2017,07,23,03,13,13.90
2017,07,23,03,14,13.90
2017,07,23,03,15,13.90
2017,07,23,03,16,13.90
2017,07,23,03,17,13.90
2017,07,23,03,18,13.90
2017,07,23,03,19,13.90
2017,07,23,03,20,13.90
2017,07,23,03,21,13.90
2017,07,23,03,22,13.90
2017,07,23,03,23,13.90
2017,07,23,03,24,13.80
2017,07,23,03,25,13.80
2017,07,23,03,26,13.80
2017,07,23,03,27,13.80
2017,07,23,03,28,13.80
2017,07,23,03,29,13.80
2017,07,23,03,30,13.80
2017,07,23,03,31,13.80
2017,07,23,03,32,13.80
2017,07,23,03,33,13.80
2017,07,23,03,34,13.80
2017,07,23,03,35,13.80
2017,07,23,03,36,13.80
2017,07,23,03,37,13.80
2017,07,23,03,38,13.80
2017,07,23,03,39,13.80
2017,07,23,03,40,13.80
2017,07,23,03,41,13.80
2017,07,23,03,42,13.80
2017,07,23,03,43,13.80
2017,07,23,03,44,13.70
2017,07,23,03,45,13.70
2017,07,23,03,46,13.70
2017,07,23,03,47,13.70
2017,07,23,03,48,13.70
2017,07,23,03,49,13.70
2017,07,23,03,50,13.70
2017,07,23,03,51,13.70
2017,07,23,03,52,13.70
2017,07,23,03,53,13.70
2017,07,23,03,54,13.70
2017,07,23,03,55,13.70
2017,07,23,03,56,13.60
2017,07,23,03,57,13.60
2017,07,23,03,58,13.60
2017,07,23,03,59,13.60
2017,07,23,04,00,13.60
2017,07,23,04,01,13.60
2017,07,23,04,02,13.60
2017,07,23,04,03,13.60
2017,07,23,05,04,13.60
2017,07,23,05,05,13.60
2017,07,23,05,06,13.60
2017,07,23,05,07,13.60
2017,07,23,05,08,13.60
2017,07,23,05,09,13.60
2017,07,23,05,10,13.70
2017,07,23,05,11,13.70
2017,07,23,05,12,13.70
2017,07,23,05,13,13.70
2017,07,23,05,14,13.70
2017,07,23,05,15,13.70
2017,07,23,05,16,13.70
2017,07,23,05,17,13.70
2017,07,23,05,18,13.70
2017,07,23,05,19,13.70
2017,07,23,05,20,13.70
2017,07,23,05,21,13.70
2017,07,23,05,22,13.70
2017,07,23,05,23,13.70
2017,07,23,05,24,13.80
2017,07,23,05,25,13.80
2017,07,23,05,26,13.80
2017,07,23,05,27,13.80
2017,07,23,05,28,13.80
2017,07,23,05,29,13.80
2017,07,23,05,30,13.80
2017,07,23,05,31,13.80
2017,07,23,05,32,13.80
2017,07,23,05,33,13.80
2017,07,23,05,34,13.80
2017,07,23,05,35,13.80
2017,07,23,05,36,13.80
2017,07,23,05,37,13.90
2017,07,23,05,38,13.90
2017,07,23,05,39,13.90
2017,07,23,05,40,13.90
2017,07,23,05,41,13.90
2017,07,23,05,42,13.90
2017,07,23,05,43,13.90
2017,07,23,05,44,13.90
2017,07,23,05,45,13.90
2017,07,23,05,46,13.90
2017,07,23,05,47,13.90
2017,07,23,05,48,13.90
2017,07,23,05,49,14.00
2017,07,23,05,50,14.00
2017,07,23,05,51,14.00
2017,07,23,05,52,14.00
2017,07,23,05,53,14.00
2017,07,23,05,54,14.00
2017,07,23,05,55,14.00
2017,07,23,05,56,14.00
2017,07,23,05,57,14.10
2017,07,23,05,58,14.10
2017,07,23,05,59,14.10
2017,07,23,06,00,14.10
2017,07,23,06,01,14.10
2017,07,23,06,02,14.10
2017,07,23,06,03,14.10
2017,07,23,06,04,14.10
2017,07,23,06,05,14.10
2017,07,23,06,06,14.10
2017,07,23,06,07,14.10
2017,07,23,06,08,14.10
2017,07,23,06,09,14.10
2017,07,23,06,10,14.10
2017,07,23,06,11,14.10
2017,07,23,06,12,14.10
2017,07,23,06,13,14.10
2017,07,23,06,14,14.10
2017,07,23,06,15,14.10
2017,07,23,06,16,14.10
2017,07,23,06,17,14.10
2017,07,23,06,18,14.10
2017,07,23,06,19,14.10
2017,07,23,06,20,14.10
2017,07,23,06,21,14.10
2017,07,23,06,22,14.10
2017,07,23,06,23,14.10
2017,07,23,06,24,14.10
2017,07,23,06,25,14.10
2017,07,23,06,26,14.10
2017,07,23,06,27,14.20
2017,07,23,06,28,14.20
2017,07,23,06,29,14.20
2017,07,23,06,30,14.20
2017,07,23,06,31,14.20
2017,07,23,06,32,14.20
2017,07,23,06,33,14.20
2017,07,23,06,34,14.20
2017,07,23,06,35,14.20
2017,07,23,06,36,14.20
2017,07,23,06,37,14.20
2017,07,23,06,38,14.20
2017,07,23,06,39,14.20
2017,07,23,06,40,14.20
2017,07,23,06,41,14.20
2017,07,23,06,42,14.20
2017,07,23,06,43,14.20
2017,07,23,06,44,14.20
2017,07,23,06,45,14.30
2017,07,23,06,46,14.30
2017,07,23,06,47,14.30
2017,07,23,06,48,14.30
2017,07,23,06,49,14.30
2017,07,23,06,50,14.30
2017,07,23,06,51,14.30
2017,07,23,06,52,14.30
2017,07,23,06,53,14.30
2017,07,23,06,54,14.30
2017,07,23,06,55,14.30
2017,07,23,06,56,14.40
2017,07,23,06,57,14.40
2017,07,23,06,58,14.40
2017,07,23,06,59,14.40
2017,07,23,07,00,14.40
2017,07,23,07,01,14.40
2017,07,23,07,02,14.40
2017,07,23,07,03,14.50
2017,07,23,07,04,14.50
2017,07,23,07,05,14.50
2017,07,23,07,06,14.50
2017,07,23,07,07,14.60
2017,07,23,07,08,14.60
2017,07,23,07,09,14.60
2017,07,23,07,10,14.60
2017,07,23,07,11,14.60
2017,07,23,07,12,14.60
2017,07,23,07,13,14.60
2017,07,23,07,14,14.60
2017,07,23,07,15,14.60
2017,07,23,07,16,14.70
2017,07,23,07,17,14.70
2017,07,23,07,18,14.70
2017,07,23,07,19,14.80
2017,07,23,07,20,14.80
2017,07,23,07,21,14.80
2017,07,23,07,22,14.80
2017,07,23,07,23,14.90
2017,07,23,07,24,14.90
2017,07,23,07,25,14.90
2017,07,23,07,26,14.90
2017,07,23,07,27,15.00
2017,07,23,07,28,15.00
2017,07,23,07,29,15.10
2017,07,23,07,30,15.10
2017,07,23,07,31,15.20
2017,07,23,07,32,15.20
2017,07,23,07,33,15.20
2017,07,23,07,34,15.30
2017,07,23,07,35,15.30
2017,07,23,07,36,15.30
2017,07,23,07,37,15.30
2017,07,23,07,38,15.30
2017,07,23,07,39,15.40
2017,07,23,07,40,15.40
2017,07,23,07,41,15.40
2017,07,23,07,42,15.40
2017,07,23,07,43,15.40
2017,07,23,07,44,15.40
2017,07,23,07,45,15.40
2017,07,23,07,46,15.40
2017,07,23,07,47,15.50
2017,07,23,07,48,15.50
2017,07,23,07,49,15.60
2017,07,23,07,50,15.60
2017,07,23,07,51,15.60
2017,07,23,07,52,15.60
2017,07,23,07,53,15.70
2017,07,23,07,54,15.70
2017,07,23,07,55,15.70
2017,07,23,07,56,15.80
2017,07,23,07,57,15.80
2017,07,23,07,58,15.80
2017,07,23,07,59,15.80
2017,07,23,08,00,15.80
2017,07,23,08,01,15.90
2017,07,23,08,02,15.90
2017,07,23,08,03,15.90
2017,07,23,08,04,16.00
2017,07,23,08,05,16.00
2017,07,23,08,06,16.00
2017,07,23,08,07,16.10
2017,07,23,08,08,16.10
2017,07,23,08,09,16.20
2017,07,23,08,10,16.20
2017,07,23,08,11,16.30
2017,07,23,08,12,16.30
2017,07,23,08,13,16.30
2017,07,23,08,14,16.30
2017,07,23,08,15,16.30
2017,07,23,08,16,16.30
2017,07,23,08,17,16.30
2017,07,23,08,18,16.30
2017,07,23,08,19,16.30
2017,07,23,08,20,16.30
2017,07,23,08,21,16.30
2017,07,23,08,22,16.30
2017,07,23,08,23,16.30
2017,07,23,08,24,16.30
2017,07,23,08,25,16.30
2017,07,23,08,26,16.30
2017,07,23,08,27,16.30
2017,07,23,08,28,16.40
2017,07,23,08,29,16.40
2017,07,23,08,30,16.40
2017,07,23,08,31,16.40
2017,07,23,08,32,16.40
2017,07,23,08,33,16.40
2017,07,23,08,34,16.40
2017,07,23,08,35,16.30
2017,07,23,08,36,16.30
2017,07,23,08,37,16.30
2017,07,23,08,38,16.30
2017,07,23,08,39,16.30
2017,07,23,08,40,16.40
2017,07,23,08,41,16.40
2017,07,23,08,42,16.50
2017,07,23,08,43,16.50
2017,07,23,08,44,16.60
2017,07,23,08,45,16.60
2017,07,23,08,46,16.70
2017,07,23,08,47,16.70
2017,07,23,08,48,16.70
2017,07,23,08,49,16.80
2017,07,23,08,50,16.80
2017,07,23,08,51,16.90
2017,07,23,08,52,17.10
2017,07,23,08,53,17.10
2017,07,23,08,54,17.20
2017,07,23,08,55,17.30
2017,07,23,08,56,17.30
2017,07,23,08,57,17.40
2017,07,23,08,58,17.40
2017,07,23,08,59,17.40
2017,07,23,09,00,17.50
2017,07,23,09,01,17.60
2017,07,23,09,02,17.60
2017,07,23,09,03,17.70
2017,07,23,09,04,17.70
2017,07,23,09,05,17.80
2017,07,23,09,06,17.90
2017,07,23,09,07,17.90
2017,07,23,09,08,18.00
2017,07,23,09,09,18.00
2017,07,23,09,10,18.10
2017,07,23,09,11,18.10
2017,07,23,09,12,18.20
2017,07,23,09,13,18.20
2017,07,23,09,14,18.20
2017,07,23,09,15,18.20
2017,07,23,09,16,18.20
2017,07,23,09,17,18.20
2017,07,23,09,18,18.10
2017,07,23,09,19,18.10
2017,07,23,09,20,18.00
2017,07,23,09,21,17.90
2017,07,23,09,22,17.80
2017,07,23,09,23,17.70
2017,07,23,09,24,17.70
2017,07,23,09,25,17.70
2017,07,23,09,26,17.70
2017,07,23,09,27,17.80
2017,07,23,09,28,17.80
2017,07,23,09,29,17.80
2017,07,23,09,30,17.90
2017,07,23,09,31,17.90
2017,07,23,09,32,18.00
2017,07,23,09,33,18.00
2017,07,23,09,34,18.10
2017,07,23,09,35,18.10
2017,07,23,09,36,18.20
2017,07,23,09,37,18.20
2017,07,23,09,38,18.30
2017,07,23,09,39,18.30
2017,07,23,09,40,18.30
2017,07,23,09,41,18.30
2017,07,23,09,42,18.40
2017,07,23,09,43,18.40
2017,07,23,09,44,18.40
2017,07,23,09,45,18.50
2017,07,23,09,46,18.50
2017,07,23,09,47,18.60
2017,07,23,09,48,18.60
2017,07,23,09,49,18.70
2017,07,23,09,50,18.80
2017,07,23,09,51,18.90
2017,07,23,09,52,19.10
2017,07,23,09,53,19.30
2017,07,23,09,54,19.30
2017,07,23,09,55,19.40
2017,07,23,09,56,19.40
2017,07,23,09,57,19.40
2017,07,23,09,58,19.40
2017,07,23,09,59,19.40
2017,07,23,10,00,19.40
2017,07,23,10,01,19.40
2017,07,23,10,02,19.40
2017,07,23,10,03,19.40
2017,07,23,10,04,19.40
2017,07,23,10,05,19.40
2017,07,23,10,06,19.40
2017,07,23,10,07,19.40
2017,07,23,10,08,19.40
2017,07,23,10,09,19.40
2017,07,23,10,10,19.30
2017,07,23,10,11,19.30
2017,07,23,10,12,19.30
2017,07,23,10,13,19.20
2017,07,23,10,14,19.20
2017,07,23,10,15,19.20
2017,07,23,10,16,19.20
2017,07,23,10,17,19.20
2017,07,23,10,18,19.20
2017,07,23,10,19,19.20
2017,07,23,10,20,19.30
2017,07,23,10,21,19.30
2017,07,23,10,22,19.30
2017,07,23,10,23,19.30
2017,07,23,10,24,19.40
2017,07,23,10,25,19.40
2017,07,23,10,26,19.40
2017,07,23,10,27,19.40
2017,07,23,10,28,19.40
2017,07,23,10,29,19.40
2017,07,23,10,30,19.40
2017,07,23,10,31,19.40
2017,07,23,10,32,19.40
2017,07,23,10,33,19.40
2017,07,23,10,34,19.30
2017,07,23,10,35,19.30
2017,07,23,10,36,19.30
2017,07,23,10,37,19.30
2017,07,23,10,38,19.30
2017,07,23,10,39,19.30
2017,07,23,10,40,19.30
2017,07,23,10,41,19.30
2017,07,23,10,42,19.20
2017,07,23,10,43,19.20
2017,07,23,10,44,19.20
2017,07,23,10,45,19.20
2017,07,23,10,46,19.20
2017,07,23,10,47,19.30
2017,07,23,10,48,19.30
2017,07,23,10,49,19.40
2017,07,23,10,50,19.50
2017,07,23,10,51,19.60
2017,07,23,10,52,19.70
2017,07,23,10,53,19.80
2017,07,23,10,54,19.90
2017,07,23,10,55,19.90
2017,07,23,10,56,20.00
2017,07,23,10,57,20.00
2017,07,23,10,58,20.10
2017,07,23,10,59,20.10
2017,07,23,11,00,20.20
2017,07,23,11,01,20.20
2017,07,23,11,02,20.20
2017,07,23,11,03,20.20
2017,07,23,11,04,20.30
2017,07,23,11,05,20.30
2017,07,23,11,06,20.30
2017,07,23,11,07,20.40
2017,07,23,11,08,20.50
2017,07,23,11,09,20.50
2017,07,23,11,10,20.60
2017,07,23,11,11,20.60
2017,07,23,11,12,20.70
2017,07,23,11,13,20.70
2017,07,23,11,14,20.70
2017,07,23,11,15,20.70
2017,07,23,11,16,20.70
2017,07,23,11,17,20.60
2017,07,23,11,18,20.50
2017,07,23,11,19,20.40
2017,07,23,11,20,20.40
2017,07,23,11,21,20.40
2017,07,23,11,22,20.40
2017,07,23,11,23,20.40
2017,07,23,11,24,20.50
2017,07,23,11,25,20.60
2017,07,23,11,26,20.70
2017,07,23,11,27,20.70
2017,07,23,11,28,20.70
2017,07,23,11,29,20.80
2017,07,23,11,30,20.80
2017,07,23,11,31,20.90
2017,07,23,11,32,21.00
2017,07,23,11,33,21.10
2017,07,23,11,34,21.20
2017,07,23,11,35,21.30
2017,07,23,11,36,21.30
2017,07,23,11,37,21.30
2017,07,23,11,38,21.30
2017,07,23,11,39,21.20
2017,07,23,11,40,21.20
2017,07,23,11,41,21.20
2017,07,23,11,42,21.20
2017,07,23,11,43,21.30
2017,07,23,11,44,21.40
2017,07,23,11,45,21.40
2017,07,23,11,46,21.30
2017,07,23,11,47,21.20
2017,07,23,11,48,21.10
2017,07,23,11,49,21.00
2017,07,23,11,50,20.90
2017,07,23,11,51,20.90
2017,07,23,11,52,20.90
2017,07,23,11,53,21.00
2017,07,23,11,54,21.00
2017,07,23,11,55,21.00
2017,07,23,11,56,21.00
2017,07,23,11,57,21.00
2017,07,23,11,58,20.90
2017,07,23,11,59,20.90
2017,07,23,12,00,20.90
2017,07,23,12,01,20.90
2017,07,23,12,02,20.90
2017,07,23,12,03,21.00
2017,07,23,12,04,21.10
2017,07,23,12,05,21.20
2017,07,23,12,06,21.30
2017,07,23,12,07,21.40
2017,07,23,12,08,21.50
2017,07,23,12,09,21.60
2017,07,23,12,10,21.70
2017,07,23,12,11,21.70
2017,07,23,12,12,21.70
2017,07,23,12,13,21.70
2017,07,23,12,14,21.70
2017,07,23,12,15,21.70
2017,07,23,12,16,21.80
2017,07,23,12,17,21.90
2017,07,23,12,18,22.00
2017,07,23,12,19,22.00
2017,07,23,12,20,22.00
2017,07,23,12,21,22.00
2017,07,23,12,22,21.90
2017,07,23,12,23,21.90
2017,07,23,12,24,21.90
2017,07,23,12,25,21.90
2017,07,23,12,26,22.00
2017,07,23,12,27,22.00
2017,07,23,12,28,22.00
2017,07,23,12,29,22.10
2017,07,23,12,30,22.10
2017,07,23,12,31,22.00
2017,07,23,12,32,21.90
2017,07,23,12,33,21.90
2017,07,23,12,34,21.90
2017,07,23,12,35,21.90
2017,07,23,12,36,21.90
2017,07,23,12,37,21.90
2017,07,23,12,38,22.00
2017,07,23,12,39,22.00
2017,07,23,12,40,22.00
2017,07,23,12,41,21.90
2017,07,23,12,42,21.90
2017,07,23,12,43,22.00
2017,07,23,12,44,22.00
2017,07,23,12,45,22.00
2017,07,23,12,46,22.10
2017,07,23,12,47,22.10
2017,07,23,12,48,22.00
2017,07,23,12,49,22.00
2017,07,23,12,50,21.90
2017,07,23,12,51,21.80
2017,07,23,12,52,21.80
2017,07,23,12,53,21.80
2017,07,23,12,54,21.80
2017,07,23,12,55,21.80
2017,07,23,12,56,21.80
2017,07,23,12,57,21.80
2017,07,23,12,58,21.80
2017,07,23,12,59,21.80
2017,07,23,13,00,21.80
2017,07,23,13,01,21.90
2017,07,23,13,02,21.90
2017,07,23,13,03,21.90
2017,07,23,13,04,21.90
2017,07,23,13,05,21.90
2017,07,23,13,06,21.90
2017,07,23,13,07,21.90
2017,07,23,13,08,22.00
2017,07,23,13,09,22.10
2017,07,23,13,10,22.10
2017,07,23,13,11,22.10
2017,07,23,13,12,22.10
2017,07,23,13,13,22.10
2017,07,23,13,14,22.10
2017,07,23,13,15,22.10
2017,07,23,13,16,22.20
2017,07,23,13,17,22.30
2017,07,23,13,18,22.30
2017,07,23,13,19,22.30
2017,07,23,13,20,22.20
2017,07,23,13,21,22.10
2017,07,23,13,22,22.10
2017,07,23,13,23,22.00
2017,07,23,13,24,22.00
2017,07,23,13,25,21.90
2017,07,23,13,26,21.90
2017,07,23,13,27,21.80
2017,07,23,13,28,21.90
2017,07,23,13,29,21.90
2017,07,23,13,30,22.00
2017,07,23,13,31,22.10
2017,07,23,13,32,22.20
2017,07,23,13,33,22.20
2017,07,23,13,34,22.20
2017,07,23,13,35,22.10
2017,07,23,13,36,22.10
2017,07,23,13,37,22.00
2017,07,23,13,38,21.90
2017,07,23,13,39,22.00
2017,07,23,13,40,22.00
2017,07,23,13,41,22.10
2017,07,23,13,42,22.20
2017,07,23,13,43,22.20
2017,07,23,13,44,22.20
2017,07,23,13,45,22.30
2017,07,23,13,46,22.30
2017,07,23,13,47,22.30
2017,07,23,13,48,22.40
2017,07,23,13,49,22.40
2017,07,23,13,50,22.30
2017,07,23,13,51,22.30
2017,07,23,13,52,22.40
2017,07,23,13,53,22.40
2017,07,23,13,54,22.50
2017,07,23,13,55,22.60
2017,07,23,13,56,22.50
2017,07,23,13,57,22.50
2017,07,23,13,58,22.40
2017,07,23,13,59,22.30
2017,07,23,14,00,22.30
2017,07,23,14,01,22.20
2017,07,23,14,02,22.10
2017,07,23,14,03,22.00
2017,07,23,14,04,21.90
2017,07,23,14,05,21.80
2017,07,23,14,06,21.80
2017,07,23,14,07,21.80
2017,07,23,14,08,21.90
2017,07,23,14,09,21.90
2017,07,23,14,10,21.90
2017,07,23,14,11,21.90
2017,07,23,14,12,21.90
2017,07,23,14,13,21.90
2017,07,23,14,14,21.90
2017,07,23,14,15,21.80
2017,07,23,14,16,21.80
2017,07,23,14,17,21.80
2017,07,23,14,18,21.90
2017,07,23,14,19,21.90
2017,07,23,14,20,22.00
2017,07,23,14,21,22.10
2017,07,23,14,22,22.10
2017,07,23,14,23,22.10
2017,07,23,14,24,22.20
2017,07,23,14,25,22.30
2017,07,23,14,26,22.30
2017,07,23,14,27,22.30
2017,07,23,14,28,22.30
2017,07,23,14,29,22.30
2017,07,23,14,30,22.30
2017,07,23,14,31,22.40
2017,07,23,14,32,22.50
2017,07,23,14,33,22.60
2017,07,23,14,34,22.70
2017,07,23,14,35,22.70
2017,07,23,14,36,22.80
2017,07,23,14,37,22.80
2017,07,23,14,38,22.90
2017,07,23,14,39,23.00
2017,07,23,14,40,23.00
2017,07,23,14,41,23.00
2017,07,23,14,42,23.00
2017,07,23,14,43,23.00
2017,07,23,14,44,22.90
2017,07,23,14,45,22.90
2017,07,23,14,46,22.90
2017,07,23,14,47,22.90
2017,07,23,14,48,22.90
2017,07,23,14,49,22.90
2017,07,23,14,50,22.90
2017,07,23,14,51,22.90
2017,07,23,14,52,22.90
2017,07,23,14,53,22.80
2017,07,23,14,54,22.80
2017,07,23,14,55,22.80
2017,07,23,14,56,22.80
2017,07,23,14,57,22.80
2017,07,23,14,58,22.80
2017,07,23,14,59,22.80
2017,07,23,15,00,22.80
2017,07,23,15,01,22.80
2017,07,23,15,02,22.70
2017,07,23,15,03,22.60
2017,07,23,15,04,22.60
2017,07,23,15,05,22.70
2017,07,23,15,06,22.70
2017,07,23,15,07,22.70
2017,07,23,15,08,22.80
2017,07,23,15,09,22.90
2017,07,23,15,10,22.90
2017,07,23,15,11,23.00
2017,07,23,15,12,23.10
2017,07,23,15,13,23.10
2017,07,23,15,14,23.10
2017,07,23,15,15,23.10
2017,07,23,15,16,23.20
2017,07,23,15,17,23.20
2017,07,23,15,18,23.20
2017,07,23,15,19,23.20
2017,07,23,15,20,23.20
2017,07,23,15,21,23.20
2017,07,23,15,22,23.20
2017,07,23,15,23,23.30
2017,07,23,15,24,23.30
2017,07,23,15,25,23.30
2017,07,23,15,26,23.20
2017,07,23,15,27,23.20
2017,07,23,15,28,23.20
2017,07,23,15,29,23.30
2017,07,23,15,30,23.30
2017,07,23,15,31,23.40
2017,07,23,15,32,23.40
2017,07,23,15,33,23.40
2017,07,23,15,34,23.40
2017,07,23,15,35,23.40
2017,07,23,15,36,23.40
2017,07,23,15,37,23.40
2017,07,23,15,38,23.50
2017,07,23,15,39,23.40
2017,07,23,15,40,23.50
2017,07,23,15,41,23.60
2017,07,23,15,42,23.70
2017,07,23,15,43,23.80
2017,07,23,15,44,23.90
2017,07,23,15,45,23.90
2017,07,23,15,46,23.90
2017,07,23,15,47,23.90
2017,07,23,15,48,23.80
2017,07,23,15,49,23.80
2017,07,23,15,50,23.80
2017,07,23,15,51,23.80
2017,07,23,15,52,23.80
2017,07,23,15,53,23.70
2017,07,23,15,54,23.70
2017,07,23,15,55,23.70
2017,07,23,15,56,23.70
2017,07,23,15,57,23.60
2017,07,23,15,58,23.50
2017,07,23,15,59,23.60
2017,07,23,16,00,23.60
2017,07,23,16,01,23.60
2017,07,23,16,02,23.60
2017,07,23,16,03,23.70
2017,07,23,16,04,23.80
2017,07,23,16,05,23.80
2017,07,23,16,06,23.80
2017,07,23,16,07,23.80
2017,07,23,16,08,23.80
2017,07,23,16,09,23.80
2017,07,23,16,10,23.80
2017,07,23,16,11,23.80
2017,07,23,16,12,23.80
2017,07,23,16,13,23.80
2017,07,23,16,14,23.80
2017,07,23,16,15,23.90
2017,07,23,16,16,23.90
2017,07,23,16,17,23.80
2017,07,23,16,18,23.80
2017,07,23,16,19,23.80
2017,07,23,16,20,23.70
2017,07,23,16,21,23.70
2017,07,23,16,22,23.70
2017,07,23,16,23,23.60
2017,07,23,16,24,23.60
2017,07,23,16,25,23.60
2017,07,23,16,26,23.60
2017,07,23,16,27,23.50
2017,07,23,16,28,23.50
2017,07,23,16,29,23.40
2017,07,23,16,30,23.50
2017,07,23,16,31,23.40
2017,07,23,16,32,23.40
2017,07,23,16,33,23.40
2017,07,23,16,34,23.30
2017,07,23,16,35,23.30
2017,07,23,16,36,23.20
2017,07,23,16,37,23.20
2017,07,23,16,38,23.30
2017,07,23,16,39,23.30
2017,07,23,16,40,23.30
2017,07,23,16,41,23.40
2017,07,23,16,42,23.40
2017,07,23,16,43,23.40
2017,07,23,16,44,23.40
2017,07,23,16,45,23.40
2017,07,23,16,46,23.30
2017,07,23,16,47,23.30
2017,07,23,16,48,23.30
2017,07,23,16,49,23.30
2017,07,23,16,50,23.30
2017,07,23,16,51,23.30
2017,07,23,16,52,23.30
2017,07,23,16,53,23.30
2017,07,23,16,54,23.30
2017,07,23,16,55,23.20
2017,07,23,16,56,23.20
2017,07,23,16,57,23.20
2017,07,23,16,58,23.20
2017,07,23,16,59,23.20
2017,07,23,17,00,23.20
2017,07,23,17,01,23.30
2017,07,23,17,02,23.30
2017,07,23,17,03,23.30
2017,07,23,17,04,23.30
2017,07,23,17,05,23.30
2017,07,23,17,06,23.30
2017,07,23,17,07,23.30
2017,07,23,17,08,23.30
2017,07,23,17,09,23.30
2017,07,23,17,10,23.30
2017,07,23,17,11,23.30
2017,07,23,17,12,23.30
2017,07,23,17,13,23.30
2017,07,23,17,14,23.30
2017,07,23,17,15,23.30
2017,07,23,17,16,23.30
2017,07,23,17,17,23.30
2017,07,23,17,18,23.30
2017,07,23,17,19,23.20
2017,07,23,17,20,23.20
2017,07,23,17,21,23.30
2017,07,23,17,22,23.30
2017,07,23,17,23,23.30
2017,07,23,17,24,23.30
2017,07,23,17,25,23.30
2017,07,23,17,26,23.30
2017,07,23,17,27,23.30
2017,07,23,17,28,23.30
2017,07,23,17,29,23.20
2017,07,23,17,30,23.20
2017,07,23,17,31,23.20
2017,07,23,17,32,23.10
2017,07,23,17,33,23.20
2017,07,23,17,34,23.20
2017,07,23,17,35,23.20
2017,07,23,17,36,23.20
2017,07,23,17,37,23.20
2017,07,23,17,38,23.20
2017,07,23,17,39,23.20
2017,07,23,17,40,23.20
2017,07,23,17,41,23.20
2017,07,23,17,42,23.20
2017,07,23,17,43,23.20
2017,07,23,17,44,23.10
2017,07,23,17,45,23.10
2017,07,23,17,46,23.10
2017,07,23,17,47,23.00
2017,07,23,17,48,22.90
2017,07,23,17,49,22.90
2017,07,23,17,50,22.90
2017,07,23,17,51,22.90
2017,07,23,17,52,22.90
2017,07,23,17,53,22.90
2017,07,23,17,54,22.90
2017,07,23,17,55,22.90
2017,07,23,17,56,22.90
2017,07,23,17,57,22.80
2017,07,23,17,58,22.80
2017,07,23,17,59,22.80
2017,07,23,18,00,22.80
2017,07,23,18,01,22.80
2017,07,23,18,02,22.80
2017,07,23,18,03,22.80
2017,07,23,18,04,22.80
2017,07,23,18,05,22.80
2017,07,23,18,06,22.80
2017,07,23,18,07,22.70
2017,07,23,18,08,22.70
2017,07,23,18,09,22.70
2017,07,23,18,10,22.70
2017,07,23,18,11,22.70
2017,07,23,18,12,22.70
2017,07,23,18,13,22.70
2017,07,23,18,14,22.60
2017,07,23,18,15,22.60
2017,07,23,18,16,22.60
2017,07,23,18,17,22.60
2017,07,23,18,18,22.60
2017,07,23,18,19,22.70